Year,Month,Day,Hour,Minute,Value (Times are PST for temperature in C)
2018,08,20,00,00,15.60
2018,08,20,00,01,15.60
2018,08,20,00,02,15.60
2018,08,20,00,03,15.60
2018,08,20,00,04,15.60
2018,08,20,00,05,15.60
2018,08,20,00,06,15.60
2018,08,20,00,07,15.60
2018,08,20,00,08,15.60
2018,08,20,00,09,15.60
2018,08,20,00,10,15.60
2018,08,20,00,11,15.60
2018,08,20,00,12,15.60
2018,08,20,00,13,15.60
2018,08,20,00,14,15.50
2018,08,20,00,15,15.50
2018,08,20,00,16,15.50
2018,08,20,00,17,15.50
2018,08,20,00,18,15.50
2018,08,20,00,19,15.50
2018,08,20,00,20,15.50
2018,08,20,00,21,15.50
2018,08,20,00,22,15.50
2018,08,20,00,23,15.50
2018,08,20,00,24,15.50
2018,08,20,00,25,15.50
2018,08,20,00,26,15.50
2018,08,20,00,27,15.50
2018,08,20,00,28,15.50
2018,08,20,00,29,15.50
2018,08,20,00,30,15.50
2018,08,20,00,31,15.50
2018,08,20,00,32,15.50
2018,08,20,00,33,15.50
2018,08,20,00,34,15.50
2018,08,20,00,35,15.50
2018,08,20,00,36,15.50
2018,08,20,00,37,15.50
2018,08,20,00,38,15.50
2018,08,20,00,39,15.50
2018,08,20,00,40,15.50
2018,08,20,00,41,15.50
2018,08,20,00,42,15.50
2018,08,20,00,43,15.50
2018,08,20,00,44,15.50
2018,08,20,00,45,15.50
2018,08,20,00,46,15.50
2018,08,20,00,47,15.40
2018,08,20,00,48,15.40
2018,08,20,00,49,15.40
2018,08,20,00,50,15.40
2018,08,20,00,51,15.40
2018,08,20,00,52,15.40
2018,08,20,00,53,15.40
2018,08,20,00,54,15.40
2018,08,20,00,55,15.40
2018,08,20,00,56,15.40
2018,08,20,00,57,15.40
2018,08,20,00,58,15.40
2018,08,20,00,59,15.40
2018,08,20,01,00,15.40
2018,08,20,01,01,15.40
2018,08,20,01,02,15.40
2018,08,20,01,03,15.40
2018,08,20,01,04,15.40
2018,08,20,01,05,15.40
2018,08,20,01,06,15.40
2018,08,20,01,07,15.40
2018,08,20,01,08,15.30
2018,08,20,01,09,15.30
2018,08,20,01,10,15.30
2018,08,20,01,11,15.30
2018,08,20,01,12,15.30
2018,08,20,01,13,15.30
2018,08,20,01,14,15.30
2018,08,20,01,15,15.30
2018,08,20,01,16,15.30
2018,08,20,01,17,15.30
2018,08,20,01,18,15.30
2018,08,20,01,19,15.30
2018,08,20,01,20,15.30
2018,08,20,01,21,15.30
2018,08,20,01,22,15.30
2018,08,20,01,23,15.30
2018,08,20,01,24,15.30
2018,08,20,01,25,15.30
2018,08,20,01,26,15.30
2018,08,20,01,27,15.30
2018,08,20,01,28,15.30
2018,08,20,01,29,15.30
2018,08,20,01,30,15.20
2018,08,20,01,31,15.20
2018,08,20,01,32,15.20
2018,08,20,01,33,15.20
2018,08,20,01,34,15.20
2018,08,20,01,35,15.20
2018,08,20,01,36,15.10
2018,08,20,01,37,15.10
2018,08,20,01,38,15.10
2018,08,20,01,39,15.10
2018,08,20,01,40,15.10
2018,08,20,01,41,15.10
2018,08,20,01,42,15.10
2018,08,20,01,43,15.10
2018,08,20,01,44,15.10
2018,08,20,01,45,15.10
2018,08,20,01,46,15.00
2018,08,20,01,47,15.00
2018,08,20,01,48,15.00
2018,08,20,01,49,14.90
2018,08,20,01,50,14.90
2018,08,20,01,51,14.90
2018,08,20,01,52,14.80
2018,08,20,01,53,14.80
2018,08,20,01,54,14.80
2018,08,20,01,55,14.80
2018,08,20,01,56,14.80
2018,08,20,01,57,14.80
2018,08,20,01,58,14.80
2018,08,20,01,59,14.70
2018,08,20,02,00,14.70
2018,08,20,02,01,14.70
2018,08,20,02,02,14.70
2018,08,20,02,03,14.60
2018,08,20,02,04,14.60
2018,08,20,02,05,14.60
2018,08,20,02,06,14.60
2018,08,20,02,07,14.50
2018,08,20,02,08,14.50
2018,08,20,02,09,14.50
2018,08,20,02,10,14.50
2018,08,20,02,11,14.40
2018,08,20,02,12,14.40
2018,08,20,02,13,14.40
2018,08,20,02,14,14.30
2018,08,20,02,15,14.30
2018,08,20,02,16,14.30
2018,08,20,02,17,14.20
2018,08,20,02,18,14.20
2018,08,20,02,19,14.20
2018,08,20,02,20,14.20
2018,08,20,02,21,14.10
2018,08,20,02,22,14.10
2018,08,20,02,23,14.00
2018,08,20,02,24,14.00
2018,08,20,02,25,13.90
2018,08,20,02,26,13.90
2018,08,20,02,27,13.80
2018,08,20,02,28,13.70
2018,08,20,02,29,13.70
2018,08,20,02,30,13.60
2018,08,20,02,31,13.60
2018,08,20,02,32,13.50
2018,08,20,02,33,13.50
2018,08,20,02,34,13.40
2018,08,20,02,35,13.40
2018,08,20,02,36,13.30
2018,08,20,02,37,13.30
2018,08,20,02,38,13.30
2018,08,20,02,39,13.20
2018,08,20,02,40,13.20
2018,08,20,02,41,13.20
2018,08,20,02,42,13.10
2018,08,20,02,43,13.10
2018,08,20,02,44,13.10
2018,08,20,02,45,13.10
2018,08,20,02,46,13.00
2018,08,20,02,47,13.00
2018,08,20,02,48,13.00
2018,08,20,02,49,13.00
2018,08,20,02,50,13.00
2018,08,20,02,51,13.00
2018,08,20,02,52,12.90
2018,08,20,02,53,12.90
2018,08,20,02,54,12.90
2018,08,20,02,55,12.90
2018,08,20,02,56,12.90
2018,08,20,02,57,12.90
2018,08,20,02,58,12.90
2018,08,20,02,59,12.90
2018,08,20,03,00,12.80
2018,08,20,03,01,12.80
2018,08,20,03,02,12.80
2018,08,20,03,03,12.80
2018,08,20,03,04,12.80
2018,08,20,03,05,12.80
2018,08,20,03,06,12.80
2018,08,20,03,07,12.80
2018,08,20,03,08,12.80
2018,08,20,03,09,12.80
2018,08,20,03,10,12.80
2018,08,20,03,11,12.80
2018,08,20,03,12,12.80
2018,08,20,03,13,12.80
2018,08,20,03,14,12.80
2018,08,20,03,15,12.80
2018,08,20,03,16,12.80
2018,08,20,03,17,12.80
2018,08,20,03,18,12.80
2018,08,20,03,19,12.80
2018,08,20,03,20,12.80
2018,08,20,03,21,12.80
2018,08,20,03,22,12.80
2018,08,20,03,23,12.80
2018,08,20,03,24,12.80
2018,08,20,03,25,12.80
2018,08,20,03,26,12.80
2018,08,20,03,27,12.80
2018,08,20,03,28,12.80
2018,08,20,03,29,12.80
2018,08,20,03,30,12.80
2018,08,20,03,31,12.80
2018,08,20,03,32,12.90
2018,08,20,03,33,12.90
2018,08,20,03,34,12.90
2018,08,20,03,35,12.80
2018,08,20,03,36,12.80
2018,08,20,03,37,12.80
2018,08,20,03,38,12.80
2018,08,20,03,39,12.80
2018,08,20,03,40,12.80
2018,08,20,03,41,12.80
2018,08,20,03,42,12.90
2018,08,20,03,43,12.90
2018,08,20,03,44,12.90
2018,08,20,03,45,12.90
2018,08,20,03,46,12.90
2018,08,20,03,47,12.90
2018,08,20,03,48,12.90
2018,08,20,03,49,12.90
2018,08,20,03,50,12.90
2018,08,20,03,51,12.90
2018,08,20,03,52,12.90
2018,08,20,03,53,12.90
2018,08,20,03,54,12.90
2018,08,20,03,55,12.90
2018,08,20,03,56,12.90
2018,08,20,03,57,12.90
2018,08,20,03,58,12.90
2018,08,20,03,59,12.90
2018,08,20,04,00,12.90
2018,08,20,04,01,12.90
2018,08,20,04,02,12.90
2018,08,20,04,03,12.90
2018,08,20,04,04,12.90
2018,08,20,04,05,12.90
2018,08,20,04,06,12.90
2018,08,20,04,07,12.90
2018,08,20,04,08,12.90
2018,08,20,04,09,12.90
2018,08,20,04,10,13.00
2018,08,20,04,11,13.00
2018,08,20,04,12,13.00
2018,08,20,04,13,13.00
2018,08,20,04,14,13.00
2018,08,20,04,15,13.00
2018,08,20,04,16,13.00
2018,08,20,04,17,13.00
2018,08,20,04,18,13.00
2018,08,20,04,19,13.00
2018,08,20,04,20,13.00
2018,08,20,04,21,13.00
2018,08,20,04,22,13.00
2018,08,20,04,23,13.10
2018,08,20,04,24,13.10
2018,08,20,04,25,13.10
2018,08,20,04,26,13.10
2018,08,20,04,27,13.10
2018,08,20,04,28,13.10
2018,08,20,04,29,13.10
2018,08,20,04,30,13.10
2018,08,20,04,31,13.10
2018,08,20,04,32,13.10
2018,08,20,04,33,13.10
2018,08,20,04,34,13.20
2018,08,20,04,35,13.20
2018,08,20,04,36,13.20
2018,08,20,04,37,13.30
2018,08,20,04,38,13.30
2018,08,20,04,39,13.30
2018,08,20,04,40,13.30
2018,08,20,04,41,13.30
2018,08,20,04,42,13.30
2018,08,20,04,43,13.30
2018,08,20,04,44,13.30
2018,08,20,04,45,13.30
2018,08,20,04,46,13.30
2018,08,20,04,47,13.30
2018,08,20,04,48,13.30
2018,08,20,04,49,13.30
2018,08,20,04,50,13.30
2018,08,20,04,51,13.30
2018,08,20,04,52,13.30
2018,08,20,04,53,13.30
2018,08,20,04,54,13.30
2018,08,20,04,55,13.30
2018,08,20,04,56,13.30
2018,08,20,04,57,13.30
2018,08,20,04,58,13.30
2018,08,20,04,59,13.30
2018,08,20,05,00,13.40
2018,08,20,05,01,13.40
2018,08,20,05,02,13.40
2018,08,20,05,03,13.40
2018,08,20,05,04,13.40
2018,08,20,05,05,13.30
2018,08,20,05,06,13.30
2018,08,20,05,07,13.30
2018,08,20,05,08,13.40
2018,08,20,05,09,13.40
2018,08,20,05,10,13.40
2018,08,20,05,11,13.40
2018,08,20,05,12,13.40
2018,08,20,05,13,13.40
2018,08,20,05,14,13.40
2018,08,20,05,15,13.40
2018,08,20,05,16,13.40
2018,08,20,05,17,13.40
2018,08,20,05,18,13.40
2018,08,20,05,19,13.40
2018,08,20,05,20,13.40
2018,08,20,05,21,13.40
2018,08,20,05,22,13.40
2018,08,20,05,23,13.40
2018,08,20,05,24,13.40
2018,08,20,05,25,13.40
2018,08,20,05,26,13.40
2018,08,20,05,27,13.40
2018,08,20,05,28,13.40
2018,08,20,05,29,13.40
2018,08,20,05,30,13.40
2018,08,20,05,31,13.40
2018,08,20,05,32,13.40
2018,08,20,05,33,13.40
2018,08,20,05,34,13.40
2018,08,20,05,35,13.40
2018,08,20,05,36,13.40
2018,08,20,05,37,13.40
2018,08,20,05,38,13.40
2018,08,20,05,39,13.40
2018,08,20,05,40,13.40
2018,08,20,05,41,13.40
2018,08,20,05,42,13.50
2018,08,20,05,43,13.50
2018,08,20,05,44,13.50
2018,08,20,05,45,13.50
2018,08,20,05,46,13.50
2018,08,20,05,47,13.50
2018,08,20,05,48,13.50
2018,08,20,05,49,13.50
2018,08,20,05,50,13.50
2018,08,20,05,51,13.50
2018,08,20,05,52,13.50
2018,08,20,05,53,13.50
2018,08,20,05,54,13.50
2018,08,20,05,55,13.50
2018,08,20,05,56,13.50
2018,08,20,05,57,13.50
2018,08,20,05,58,13.50
2018,08,20,05,59,13.50
2018,08,20,06,00,13.50
2018,08,20,06,01,13.50
2018,08,20,06,02,13.50
2018,08,20,06,03,13.50
2018,08,20,06,04,13.50
2018,08,20,06,05,13.40
2018,08,20,06,06,13.40
2018,08,20,06,07,13.40
2018,08,20,06,08,13.50
2018,08,20,06,09,13.50
2018,08,20,06,10,13.50
2018,08,20,06,11,13.50
2018,08,20,06,12,13.60
2018,08,20,06,13,13.60
2018,08,20,06,14,13.60
2018,08,20,06,15,13.60
2018,08,20,06,16,13.60
2018,08,20,06,17,13.60
2018,08,20,06,18,13.60
2018,08,20,06,19,13.70
2018,08,20,06,20,13.70
2018,08,20,06,21,13.70
2018,08,20,06,22,13.70
2018,08,20,06,23,13.70
2018,08,20,06,24,13.70
2018,08,20,06,25,13.70
2018,08,20,06,26,13.70
2018,08,20,06,27,13.70
2018,08,20,06,28,13.70
2018,08,20,06,29,13.70
2018,08,20,06,30,13.70
2018,08,20,06,31,13.80
2018,08,20,06,32,13.80
2018,08,20,06,33,13.80
2018,08,20,06,34,13.80
2018,08,20,06,35,13.80
2018,08,20,06,36,13.80
2018,08,20,06,37,13.80
2018,08,20,06,38,13.80
2018,08,20,06,39,13.80
2018,08,20,06,40,13.80
2018,08,20,06,41,13.80
2018,08,20,06,42,13.70
2018,08,20,06,43,13.70
2018,08,20,06,44,13.70
2018,08,20,06,45,13.70
2018,08,20,06,46,13.70
2018,08,20,06,47,13.70
2018,08,20,06,48,13.70
2018,08,20,06,49,13.70
2018,08,20,06,50,13.70
2018,08,20,06,51,13.70
2018,08,20,06,52,13.70
2018,08,20,06,53,13.70
2018,08,20,06,54,13.70
2018,08,20,06,55,13.70
2018,08,20,06,56,13.70
2018,08,20,06,57,13.60
2018,08,20,06,58,13.60
2018,08,20,06,59,13.60
2018,08,20,07,00,13.60
2018,08,20,07,01,13.60
2018,08,20,07,02,13.60
2018,08,20,07,03,13.60
2018,08,20,07,04,13.50
2018,08,20,07,05,13.50
2018,08,20,07,06,13.50
2018,08,20,07,07,13.50
2018,08,20,07,08,13.50
2018,08,20,07,09,13.50
2018,08,20,07,10,13.50
2018,08,20,07,11,13.40
2018,08,20,07,12,13.40
2018,08,20,07,13,13.40
2018,08,20,07,14,13.40
2018,08,20,07,15,13.40
2018,08,20,07,16,13.40
2018,08,20,07,17,13.40
2018,08,20,07,18,13.30
2018,08,20,07,19,13.30
2018,08,20,07,20,13.30
2018,08,20,07,21,13.30
2018,08,20,07,22,13.30
2018,08,20,07,23,13.30
2018,08,20,07,24,13.30
2018,08,20,07,25,13.30
2018,08,20,07,26,13.30
2018,08,20,07,27,13.30
2018,08,20,07,28,13.30
2018,08,20,07,29,13.30
2018,08,20,07,30,13.30
2018,08,20,07,31,13.30
2018,08,20,07,32,13.30
2018,08,20,07,33,13.30
2018,08,20,07,34,13.30
2018,08,20,07,35,13.30
2018,08,20,07,36,13.30
2018,08,20,07,37,13.30
2018,08,20,07,38,13.30
2018,08,20,07,39,13.30
2018,08,20,07,40,13.30
2018,08,20,07,41,13.20
2018,08,20,07,42,13.20
2018,08,20,07,43,13.20
2018,08,20,07,44,13.20
2018,08,20,07,45,13.20
2018,08,20,07,46,13.20
2018,08,20,07,47,13.30
2018,08,20,07,48,13.30
2018,08,20,07,49,13.30
2018,08,20,07,50,13.30
2018,08,20,07,51,13.30
2018,08,20,07,52,13.30
2018,08,20,07,53,13.30
2018,08,20,07,54,13.30
2018,08,20,07,55,13.30
2018,08,20,07,56,13.40
2018,08,20,07,57,13.40
2018,08,20,07,58,13.40
2018,08,20,07,59,13.40
2018,08,20,08,00,13.50
2018,08,20,08,01,13.50
2018,08,20,08,02,13.50
2018,08,20,08,03,13.50
2018,08,20,08,04,13.60
2018,08,20,08,05,13.60
2018,08,20,08,06,13.60
2018,08,20,08,07,13.60
2018,08,20,08,08,13.60
2018,08,20,08,09,13.70
2018,08,20,08,10,13.70
2018,08,20,08,11,13.70
2018,08,20,08,12,13.70
2018,08,20,08,13,13.70
2018,08,20,08,14,13.80
2018,08,20,08,15,13.80
2018,08,20,08,16,13.90
2018,08,20,08,17,13.90
2018,08,20,08,18,13.90
2018,08,20,08,19,13.90
2018,08,20,08,20,14.00
2018,08,20,08,21,14.00
2018,08,20,08,22,14.10
2018,08,20,08,23,14.10
2018,08,20,08,24,14.20
2018,08,20,08,25,14.20
2018,08,20,08,26,14.20
2018,08,20,08,27,14.20
2018,08,20,08,28,14.30
2018,08,20,08,29,14.40
2018,08,20,08,30,14.40
2018,08,20,08,31,14.50
2018,08,20,08,32,14.50
2018,08,20,08,33,14.60
2018,08,20,08,34,14.60
2018,08,20,08,35,14.60
2018,08,20,08,36,14.70
2018,08,20,08,37,14.80
2018,08,20,08,38,14.80
2018,08,20,08,39,14.80
2018,08,20,08,40,14.90
2018,08,20,08,41,14.90
2018,08,20,08,42,15.00
2018,08,20,08,43,15.00
2018,08,20,08,44,15.10
2018,08,20,08,45,15.10
2018,08,20,08,46,15.20
2018,08,20,08,47,15.30
2018,08,20,08,48,15.30
2018,08,20,08,49,15.30
2018,08,20,08,50,15.30
2018,08,20,08,51,15.40
2018,08,20,08,52,15.40
2018,08,20,08,53,15.40
2018,08,20,08,54,15.50
2018,08,20,08,55,15.50
2018,08,20,08,56,15.50
2018,08,20,08,57,15.60
2018,08,20,08,58,15.60
2018,08,20,08,59,15.70
2018,08,20,09,00,15.70
2018,08,20,09,01,15.80
2018,08,20,09,02,15.80
2018,08,20,09,03,15.80
2018,08,20,09,04,15.80
2018,08,20,09,05,15.90
2018,08,20,09,06,16.00
2018,08,20,09,07,16.10
2018,08,20,09,08,16.10
2018,08,20,09,09,16.10
2018,08,20,09,10,16.20
2018,08,20,09,11,16.30
2018,08,20,09,12,16.30
2018,08,20,09,13,16.40
2018,08,20,09,14,16.40
2018,08,20,09,15,16.50
2018,08,20,09,16,16.60
2018,08,20,09,17,16.60
2018,08,20,09,18,16.70
2018,08,20,09,19,16.70
2018,08,20,09,20,16.70
2018,08,20,09,21,16.70
2018,08,20,09,22,16.70
2018,08,20,09,23,16.80
2018,08,20,09,24,16.80
2018,08,20,09,25,16.80
2018,08,20,09,26,16.90
2018,08,20,09,27,16.90
2018,08,20,09,28,16.90
2018,08,20,09,29,16.90
2018,08,20,09,30,17.00
2018,08,20,09,31,17.00
2018,08,20,09,32,17.10
2018,08,20,09,33,17.10
2018,08,20,09,34,17.10
2018,08,20,09,35,17.10
2018,08,20,09,36,17.10
2018,08,20,09,37,17.20
2018,08,20,09,38,17.20
2018,08,20,09,39,17.20
2018,08,20,09,40,17.20
2018,08,20,09,41,17.30
2018,08,20,09,42,17.30
2018,08,20,09,43,17.30
2018,08,20,09,44,17.30
2018,08,20,09,45,17.30
2018,08,20,09,46,17.40
2018,08,20,09,47,17.40
2018,08,20,09,48,17.50
2018,08,20,09,49,17.50
2018,08,20,09,50,17.60
2018,08,20,09,51,17.60
2018,08,20,09,52,17.70
2018,08,20,09,53,17.70
2018,08,20,09,54,17.80
2018,08,20,09,55,17.90
2018,08,20,09,56,17.90
2018,08,20,09,57,17.90
2018,08,20,09,58,18.00
2018,08,20,09,59,18.10
2018,08,20,10,00,18.20
2018,08,20,10,01,18.20
2018,08,20,10,02,18.20
2018,08,20,10,03,18.30
2018,08,20,10,04,18.30
2018,08,20,10,05,18.40
2018,08,20,10,06,18.40
2018,08,20,10,07,18.50
2018,08,20,10,08,18.50
2018,08,20,10,09,18.60
2018,08,20,10,10,18.70
2018,08,20,10,11,18.80
2018,08,20,10,12,18.90
2018,08,20,10,13,18.90
2018,08,20,10,14,19.00
2018,08,20,10,15,19.10
2018,08,20,10,16,19.10
2018,08,20,10,17,19.10
2018,08,20,10,18,19.20
2018,08,20,10,19,19.20
2018,08,20,10,20,19.20
2018,08,20,10,21,19.20
2018,08,20,10,22,19.20
2018,08,20,10,23,19.30
2018,08,20,10,24,19.30
2018,08,20,10,25,19.40
2018,08,20,10,26,19.40
2018,08,20,10,27,19.50
2018,08,20,10,28,19.50
2018,08,20,10,29,19.60
2018,08,20,10,30,19.60
2018,08,20,10,31,19.60
2018,08,20,10,32,19.70
2018,08,20,10,33,19.70
2018,08,20,10,34,19.70
2018,08,20,10,35,19.70
2018,08,20,10,36,19.70
2018,08,20,10,37,19.80
2018,08,20,10,38,19.80
2018,08,20,10,39,19.90
2018,08,20,10,40,19.90
2018,08,20,10,41,20.00
2018,08,20,10,42,20.10
2018,08,20,10,43,20.10
2018,08,20,10,44,20.20
2018,08,20,10,45,20.20
2018,08,20,10,46,20.30
2018,08,20,10,47,20.30
2018,08,20,10,48,20.40
2018,08,20,10,49,20.50
2018,08,20,10,50,20.50
2018,08,20,10,51,20.50
2018,08,20,10,52,20.50
2018,08,20,10,53,20.50
2018,08,20,10,54,20.50
2018,08,20,10,55,20.50
2018,08,20,10,56,20.50
2018,08,20,10,57,20.50
2018,08,20,10,58,20.60
2018,08,20,10,59,20.60
2018,08,20,11,00,20.60
2018,08,20,11,01,20.60
2018,08,20,11,02,20.60
2018,08,20,11,03,20.60
2018,08,20,11,04,20.60
2018,08,20,11,05,20.70
2018,08,20,11,06,20.70
2018,08,20,11,07,20.70
2018,08,20,11,08,20.70
2018,08,20,11,09,20.70
2018,08,20,11,10,20.70
2018,08,20,11,11,20.70
2018,08,20,11,12,20.80
2018,08,20,11,13,20.80
2018,08,20,11,14,20.90
2018,08,20,11,15,21.00
2018,08,20,11,16,21.00
2018,08,20,11,17,21.10
2018,08,20,11,18,21.10
2018,08,20,11,19,21.20
2018,08,20,11,20,21.20
2018,08,20,11,21,21.20
2018,08,20,11,22,21.20
2018,08,20,11,23,21.20
2018,08,20,11,24,21.20
2018,08,20,11,25,21.20
2018,08,20,11,26,21.30
2018,08,20,11,27,21.30
2018,08,20,11,28,21.30
2018,08,20,11,29,21.30
2018,08,20,11,30,21.30
2018,08,20,11,31,21.30
2018,08,20,11,32,21.30
2018,08,20,11,33,21.30
2018,08,20,11,34,21.30
2018,08,20,11,35,21.30
2018,08,20,11,36,21.30
2018,08,20,11,37,21.30
2018,08,20,11,38,21.30
2018,08,20,11,39,21.30
2018,08,20,11,40,21.40
2018,08,20,11,41,21.40
2018,08,20,11,42,21.40
2018,08,20,11,43,21.40
2018,08,20,11,44,21.40
2018,08,20,11,45,21.40
2018,08,20,11,46,21.60
2018,08,20,11,47,21.60
2018,08,20,11,48,21.60
2018,08,20,11,49,21.60
2018,08,20,11,50,21.60
2018,08,20,11,51,21.60
2018,08,20,11,52,21.60
2018,08,20,11,53,21.60
2018,08,20,11,54,21.70
2018,08,20,11,55,21.70
2018,08,20,11,56,21.70
2018,08,20,11,57,21.70
2018,08,20,11,58,21.80
2018,08,20,11,59,21.80
2018,08,20,12,00,21.90
2018,08,20,12,01,21.90
2018,08,20,12,02,22.00
2018,08,20,12,03,21.90
2018,08,20,12,04,21.90
2018,08,20,12,05,21.80
2018,08,20,12,06,21.80
2018,08,20,12,07,21.80
2018,08,20,12,08,21.90
2018,08,20,12,09,21.90
2018,08,20,12,10,22.00
2018,08,20,12,11,22.00
2018,08,20,12,12,22.00
2018,08,20,12,13,22.10
2018,08,20,12,14,22.20
2018,08,20,12,15,22.20
2018,08,20,12,16,22.30
2018,08,20,12,17,22.40
2018,08,20,12,18,22.40
2018,08,20,12,19,22.50
2018,08,20,12,20,22.50
2018,08,20,12,21,22.60
2018,08,20,12,22,22.60
2018,08,20,12,23,22.70
2018,08,20,12,24,22.80
2018,08,20,12,25,22.80
2018,08,20,12,26,22.80
2018,08,20,12,27,22.70
2018,08,20,12,28,22.70
2018,08,20,12,29,22.70
2018,08,20,12,30,22.70
2018,08,20,12,31,22.70
2018,08,20,12,32,22.70
2018,08,20,12,33,22.70
2018,08,20,12,34,22.70
2018,08,20,12,35,22.80
2018,08,20,12,36,22.80
2018,08,20,12,37,22.80
2018,08,20,12,38,22.80
2018,08,20,12,39,22.90
2018,08,20,12,40,22.90
2018,08,20,12,41,22.90
2018,08,20,12,42,22.90
2018,08,20,12,43,22.90
2018,08,20,12,44,22.90
2018,08,20,12,45,22.90
2018,08,20,12,46,23.00
2018,08,20,12,47,23.10
2018,08,20,12,48,23.10
2018,08,20,12,49,23.00
2018,08,20,12,50,23.10
2018,08,20,12,51,23.10
2018,08,20,12,52,23.00
2018,08,20,12,53,22.90
2018,08,20,12,54,22.90
2018,08,20,12,55,22.90
2018,08,20,12,56,22.90
2018,08,20,12,57,22.90
2018,08,20,12,58,22.90
2018,08,20,12,59,22.90
2018,08,20,13,00,22.90
2018,08,20,13,01,23.00
2018,08,20,13,02,23.20
2018,08,20,13,03,23.30
2018,08,20,13,04,23.30
2018,08,20,13,05,23.40
2018,08,20,13,06,23.50
2018,08,20,13,07,23.70
2018,08,20,13,08,23.70
2018,08,20,13,09,23.80
2018,08,20,13,10,23.80
2018,08,20,13,11,23.80
2018,08,20,13,12,23.90
2018,08,20,13,13,23.90
2018,08,20,13,14,23.90
2018,08,20,13,15,23.90
2018,08,20,13,16,23.90
2018,08,20,13,17,23.90
2018,08,20,13,18,23.90
2018,08,20,13,19,24.00
2018,08,20,13,20,24.10
2018,08,20,13,21,24.10
2018,08,20,13,22,24.10
2018,08,20,13,23,24.10
2018,08,20,13,24,24.20
2018,08,20,13,25,24.20
2018,08,20,13,26,24.30
2018,08,20,13,27,24.40
2018,08,20,13,28,24.40
2018,08,20,13,29,24.50
2018,08,20,13,30,24.60
2018,08,20,13,31,24.50
2018,08,20,13,32,24.50
2018,08,20,13,33,24.60
2018,08,20,13,34,24.60
2018,08,20,13,35,24.70
2018,08,20,13,36,24.70
2018,08,20,13,37,24.70
2018,08,20,13,38,24.70
2018,08,20,13,39,24.70
2018,08,20,13,40,24.70
2018,08,20,13,41,24.70
2018,08,20,13,42,24.70
2018,08,20,13,43,24.70
2018,08,20,13,44,24.70
2018,08,20,13,45,24.70
2018,08,20,13,46,24.60
2018,08,20,13,47,24.60
2018,08,20,13,48,24.50
2018,08,20,13,49,24.50
2018,08,20,13,50,24.50
2018,08,20,13,51,24.50
2018,08,20,13,52,24.50
2018,08,20,13,53,24.50
2018,08,20,13,54,24.60
2018,08,20,13,55,24.70
2018,08,20,13,56,24.80
2018,08,20,13,57,24.90
2018,08,20,13,58,25.00
2018,08,20,13,59,25.10
2018,08,20,14,00,25.20
2018,08,20,14,01,25.30
2018,08,20,14,02,25.40
2018,08,20,14,03,25.50
2018,08,20,14,04,25.60
2018,08,20,14,05,25.70
2018,08,20,14,06,25.80
2018,08,20,14,07,25.90
2018,08,20,14,08,25.90
2018,08,20,14,09,25.90
2018,08,20,14,10,25.80
2018,08,20,14,11,25.70
2018,08,20,14,12,25.60
2018,08,20,14,13,25.60
2018,08,20,14,14,25.60
2018,08,20,14,15,25.60
2018,08,20,14,16,25.60
2018,08,20,14,17,25.60
2018,08,20,14,18,25.70
2018,08,20,14,19,25.70
2018,08,20,14,20,25.70
2018,08,20,14,21,25.70
2018,08,20,14,22,25.70
2018,08,20,14,23,25.80
2018,08,20,14,24,25.90
2018,08,20,14,25,25.90
2018,08,20,14,26,26.00
2018,08,20,14,27,26.00
2018,08,20,14,28,26.00
2018,08,20,14,29,26.10
2018,08,20,14,30,26.20
2018,08,20,14,31,26.30
2018,08,20,14,32,26.40
2018,08,20,14,33,26.40
2018,08,20,14,34,26.40
2018,08,20,14,35,26.40
2018,08,20,14,36,26.30
2018,08,20,14,37,26.30
2018,08,20,14,38,26.40
2018,08,20,14,39,26.40
2018,08,20,14,40,26.50
2018,08,20,14,41,26.60
2018,08,20,14,42,26.60
2018,08,20,14,43,26.60
2018,08,20,14,44,26.60
2018,08,20,14,45,26.60
2018,08,20,14,46,26.60
2018,08,20,14,47,26.60
2018,08,20,14,48,26.60
2018,08,20,14,49,26.60
2018,08,20,14,50,26.60
2018,08,20,14,51,26.50
2018,08,20,14,52,26.40
2018,08,20,14,53,26.40
2018,08,20,14,54,26.50
2018,08,20,14,55,26.60
2018,08,20,14,56,26.60
2018,08,20,14,57,26.60
2018,08,20,14,58,26.60
2018,08,20,14,59,26.60
2018,08,20,15,00,26.60
2018,08,20,15,01,26.50
2018,08,20,15,02,26.40
2018,08,20,15,03,26.40
2018,08,20,15,04,26.40
2018,08,20,15,05,26.40
2018,08,20,15,06,26.40
2018,08,20,15,07,26.40
2018,08,20,15,08,26.40
2018,08,20,15,09,26.40
2018,08,20,15,10,26.40
2018,08,20,15,11,26.40
2018,08,20,15,12,26.40
2018,08,20,15,13,26.40
2018,08,20,15,14,26.40
2018,08,20,15,15,26.50
2018,08,20,15,16,26.60
2018,08,20,15,17,26.60
2018,08,20,15,18,26.60
2018,08,20,15,19,26.60
2018,08,20,15,20,26.60
2018,08,20,15,21,26.60
2018,08,20,15,22,26.60
2018,08,20,15,23,26.50
2018,08,20,15,24,26.40
2018,08,20,15,25,26.40
2018,08,20,15,26,26.30
2018,08,20,15,27,26.20
2018,08,20,15,28,26.20
2018,08,20,15,29,26.20
2018,08,20,15,30,26.20
2018,08,20,15,31,26.20
2018,08,20,15,32,26.30
2018,08,20,15,33,26.30
2018,08,20,15,34,26.30
2018,08,20,15,35,26.30
2018,08,20,15,36,26.30
2018,08,20,15,37,26.30
2018,08,20,15,38,26.30
2018,08,20,15,39,26.30
2018,08,20,15,40,26.40
2018,08,20,15,41,26.40
2018,08,20,15,42,26.40
2018,08,20,15,43,26.30
2018,08,20,15,44,26.30
2018,08,20,15,45,26.20
2018,08,20,15,46,26.20
2018,08,20,15,47,26.00
2018,08,20,15,48,25.90
2018,08,20,15,49,25.90
2018,08,20,15,50,25.80
2018,08,20,15,51,25.80
2018,08,20,15,52,25.80
2018,08,20,15,53,25.80
2018,08,20,15,54,25.80
2018,08,20,15,55,25.80
2018,08,20,15,56,25.70
2018,08,20,15,57,25.70
2018,08,20,15,58,25.80
2018,08,20,15,59,25.80
2018,08,20,16,00,25.70
2018,08,20,16,01,25.70
2018,08,20,16,02,25.80
2018,08,20,16,03,25.80
2018,08,20,16,04,25.80
2018,08,20,16,05,25.80
2018,08,20,16,06,25.80
2018,08,20,16,07,25.80
2018,08,20,16,08,25.80
2018,08,20,16,09,25.90
2018,08,20,16,10,25.90
2018,08,20,16,11,25.90
2018,08,20,16,12,25.90
2018,08,20,16,13,26.00
2018,08,20,16,14,26.00
2018,08,20,16,15,26.10
2018,08,20,16,16,26.10
2018,08,20,16,17,26.20
2018,08,20,16,18,26.20
2018,08,20,16,19,26.20
2018,08,20,16,20,26.30
2018,08,20,16,21,26.30
2018,08,20,16,22,26.40
2018,08,20,16,23,26.50
2018,08,20,16,24,26.60
2018,08,20,16,25,26.60
2018,08,20,16,26,26.60
2018,08,20,16,27,26.70
2018,08,20,16,28,26.70
2018,08,20,16,29,26.60
2018,08,20,16,30,26.60
2018,08,20,16,31,26.60
2018,08,20,16,32,26.60
2018,08,20,16,33,26.60
2018,08,20,16,34,26.60
2018,08,20,16,35,26.60
2018,08,20,16,36,26.40
2018,08,20,16,37,26.40
2018,08,20,16,38,26.40
2018,08,20,16,39,26.40
2018,08,20,16,40,26.40
2018,08,20,16,41,26.50
2018,08,20,16,42,26.60
2018,08,20,16,43,26.60
2018,08,20,16,44,26.60
2018,08,20,16,45,26.60
2018,08,20,16,46,26.70
2018,08,20,16,47,26.70
2018,08,20,16,48,26.80
2018,08,20,16,49,26.80
2018,08,20,16,50,26.70
2018,08,20,16,51,26.70
2018,08,20,16,52,26.60
2018,08,20,16,53,26.50
2018,08,20,16,54,26.40
2018,08,20,16,55,26.20
2018,08,20,16,56,26.00
2018,08,20,16,57,25.90
2018,08,20,16,58,25.90
2018,08,20,16,59,25.80
2018,08,20,17,00,25.80
2018,08,20,17,01,25.80
2018,08,20,17,02,25.80
2018,08,20,17,03,25.80
2018,08,20,17,04,25.70
2018,08,20,17,05,25.70
2018,08,20,17,06,25.70
2018,08,20,17,07,25.70
2018,08,20,17,08,25.80
2018,08,20,17,09,25.80
2018,08,20,17,10,25.80
2018,08,20,17,11,25.80
2018,08,20,17,12,25.90
2018,08,20,17,13,25.90
2018,08,20,17,14,25.90
2018,08,20,17,15,25.90
2018,08,20,17,16,25.90
2018,08,20,17,17,26.00
2018,08,20,17,18,26.00
2018,08,20,17,19,26.00